Wind_Speed
51 53 54 55 56 57 58 59 60 61 62 62 63 64 64 64 64 64 64 64 65 65 66 66 66 66 66 66 66 66 65 66 64 63 64 66 67 68 68 68 69 69 69
52 53 54 55 57 57 58 59 59 59 60 61 61 62 63 63 63 64 63 63 64 65 65 65 65 66 66 66 66 65 65 65 65 64 64 66 67 68 68 68 69 69 70
53 54 54 55 57 57 58 58 58 58 59 59 60 61 61 61 61 61 61 62 63 63 64 64 64 65 64 65 64 64 65 65 65 64 64 65 66 67 67 68 69 69 69
54 54 54 55 56 57 57 57 57 57 58 58 59 59 59 59 59 60 61 62 63 63 63 63 63 63 63 64 64 64 64 64 64 64 64 64 64 65 67 68 68 67 67
56 56 56 56 55 56 56 56 57 58 58 58 57 57 57 58 59 60 61 62 62 62 62 61 61 62 62 62 62 62 63 63 63 63 63 63 63 65 66 67 66 66 65
58 58 58 58 57 57 56 56 57 57 57 56 56 57 57 58 59 61 61 61 61 61 61 61 62 62 61 62 62 62 62 63 63 63 63 63 63 64 65 65 65 65 64
60 60 59 59 58 57 57 57 57 56 56 56 56 57 58 59 61 62 63 62 61 60 61 61 61 61 61 61 61 61 62 62 62 63 62 62 62 63 64 64 64 64 63
63 62 61 60 59 59 58 58 58 57 57 57 57 58 59 59 61 61 62 62 61 60 60 60 60 59 59 59 60 61 61 61 61 62 62 61 61 61 62 62 62 62 60
64 62 61 61 59 59 58 58 58 57 57 58 58 59 59 59 61 61 61 61 60 60 59 59 58 58 58 59 60 60 60 60 61 61 61 60 59 59 60 61 61 61 59
64 62 61 61 60 59 58 57 57 57 57 57 58 59 60 60 60 60 60 59 59 58 58 58 58 58 58 59 59 58 58 58 59 59 58 58 57 57 58 59 59 59 57
64 62 61 60 59 58 58 57 57 57 57 57 58 58 59 58 58 58 58 58 58 58 58 57 56 57 57 57 57 56 56 56 56 56 55 55 54 54 55 55 56 56 53
62 60 59 58 58 58 58 57 57 57 57 57 57 57 57 56 57 57 58 58 58 58 56 55 54 54 55 54 54 54 53 54 53 53 52 52 52 52 52 52 52 50 49
60 59 58 58 58 58 57 57 57 57 57 56 55 55 55 55 56 57 57 57 57 56 54 54 54 53 53 52 51 52 52 51 51 51 50 50 50 50 49 49 48 47 46
59 58 58 57 56 56 56 56 55 55 54 54 54 54 54 55 55 55 55 55 54 54 53 53 52 51 50 49 49 49 49 48 49 49 48 48 48 47 47 46 45 44 44
57 56 56 55 54 54 53 53 53 53 54 53 53 54 54 54 54 55 55 54 53 52 52 51 49 48 47 46 46 45 45 46 46 46 45 45 45 45 44 43 43 42 42
55 54 53 53 52 51 50 49 50 50 51 52 52 53 53 54 54 54 53 52 51 50 49 48 46 45 44 44 43 43 43 44 44 43 43 43 43 42 41 41 41 41 39
54 52 51 50 49 48 47 47 46 46 47 49 50 51 52 52 53 53 52 50 49 48 46 44 43 43 42 41 41 41 41 41 40 40 41 41 40 39 39 38 38 38 37
51 50 49 48 46 45 44 45 45 46 46 47 49 50 51 51 51 51 49 47 45 43 42 41 40 39 39 38 38 38 38 38 38 38 39 39 38 37 37 36 36 35 34
48 47 46 45 44 43 43 44 46 47 47 48 49 49 50 49 48 46 44 42 40 39 38 37 36 36 36 36 35 35 35 35 36 37 36 36 36 35 35 34 34 34 33
45 44 43 42 42 42 43 44 45 46 47 47 47 47 46 44 42 40 39 38 36 35 34 34 33 33 32 32 32 32 33 33 34 34 34 34 34 34 34 33 33 32 30
42 40 40 40 41 42 43 44 44 45 45 45 44 42 41 39 37 34 33 32 31 30 30 29 28 28 27 27 28 29 30 31 32 32 32 33 33 33 33 32 31 29 26
39 39 40 41 41 42 43 43 44 44 44 42 40 38 36 35 32 30 30 29 28 27 25 23 23 23 23 24 25 27 28 29 29 29 30 31 32 32 31 30 28 25 23
39 39 40 40 41 41 42 42 42 41 40 38 36 34 33 32 30 29 28 27 25 23 21 19 19 20 21 22 24 26 27 27 28 28 29 30 30 30 28 26 23 20 19
38 38 39 39 40 40 40 40 39 38 36 34 33 31 31 29 28 27 25 24 22 20 19 18 18 19 20 22 24 25 26 26 27 27 28 28 27 25 23 22 19 17 15
36 37 37 38 38 38 38 37 36 34 32 31 30 29 27 26 25 23 22 20 19 18 18 18 18 19 20 22 24 25 26 26 26 26 25 24 22 21 20 18 15 12 11
35 35 36 36 36 36 35 33 32 31 29 28 26 25 23 22 22 21 20 19 18 18 17 18 18 20 21 23 24 25 25 25 23 22 21 20 20 19 16 13 11 10 9
Wind_Direction
292 290 289 287 287 286 285 285 284 284 285 285 286 286 287 287 288 288 289 290 291 292 292 292 292 292 292 292 292 292 292 292 292 292 293 293 293 293 294 294 294 295 295
295 293 291 289 287 286 285 285 284 285 285 285 285 286 287 287 288 288 289 290 291 292 292 292 292 291 292 292 292 292 292 291 292 292 293 293 293 294 294 294 295 295 296
299 297 294 291 289 288 286 285 285 285 286 286 286 287 289 289 290 289 289 290 291 291 292 291 291 291 292 292 292 292 292 291 292 293 293 294 294 294 294 295 295 296 296
301 300 297 295 293 290 289 287 287 287 288 288 288 289 290 290 291 290 290 290 291 292 292 292 291 291 291 291 292 292 292 292 292 293 294 294 294 294 295 295 296 296 297
303 301 300 298 296 294 292 290 289 289 289 289 289 290 290 291 291 291 291 291 292 292 292 292 292 292 291 291 292 292 292 292 293 294 295 294 295 295 295 296 297 297 298
303 302 300 298 297 295 294 292 291 290 289 289 290 290 291 292 292 292 291 291 292 292 292 292 291 291 291 291 291 291 291 292 294 294 295 295 295 295 296 297 298 299 299
303 301 300 298 297 296 295 294 292 291 290 290 291 291 291 292 292 292 292 291 292 292 292 292 291 291 290 291 291 291 292 293 293 294 295 296 296 296 297 298 299 300 302
302 301 300 298 297 296 295 294 292 291 290 290 291 292 292 293 293 293 292 292 292 292 292 291 291 291 291 290 290 290 291 292 293 294 295 296 296 296 297 299 300 301 303
302 301 299 298 296 295 295 294 293 292 291 290 291 292 293 293 293 293 293 293 292 292 291 291 291 291 290 289 290 290 291 292 293 294 295 296 296 297 298 299 301 302 304
302 301 299 298 296 295 295 294 293 293 292 292 292 293 293 293 293 294 293 294 293 293 292 292 291 290 289 289 290 290 291 291 292 294 295 295 296 297 298 300 301 303 304
301 300 299 298 297 296 295 294 294 293 293 293 293 294 294 294 294 294 294 294 294 294 294 293 291 290 290 290 290 291 291 291 292 293 294 294 295 297 298 300 301 303 304
301 300 298 297 296 296 295 295 295 294 294 295 295 295 295 295 294 294 294 295 295 295 294 293 291 291 291 291 290 291 291 292 292 293 294 294 295 297 298 300 301 302 303
300 299 298 298 297 296 296 296 296 296 296 296 296 296 295 295 295 295 295 295 295 294 294 293 292 291 291 291 290 290 291 291 292 293 293 294 296 298 299 300 300 302 304
301 300 300 299 298 297 297 297 298 298 298 297 297 297 296 296 296 296 296 295 294 294 294 293 293 292 291 291 290 290 290 290 291 292 293 294 296 298 300 300 300 302 304
302 302 301 301 300 299 299 299 299 299 299 299 299 299 298 298 297 296 296 296 294 293 293 293 293 292 291 291 290 290 289 290 291 292 293 295 297 299 300 300 301 303 305
304 304 303 303 302 301 301 301 301 302 302 302 302 301 301 300 299 298 298 296 295 294 293 293 292 291 290 290 290 289 289 290 291 292 294 296 298 299 300 300 302 304 305
307 307 306 306 305 304 304 304 303 303 304 304 304 304 303 302 301 300 298 296 295 293 293 292 291 290 289 289 289 289 290 291 292 293 295 297 298 299 300 301 303 304 305
309 309 308 308 307 307 307 307 307 307 306 306 306 305 304 304 303 301 299 297 295 293 293 292 290 289 288 288 288 289 289 291 293 295 296 298 300 301 302 302 304 305 305
310 310 310 310 310 310 310 310 309 309 309 309 308 308 307 307 306 304 301 299 296 294 292 291 289 288 287 287 287 288 290 292 295 297 298 300 301 302 303 303 305 305 306
312 312 312 312 312 312 312 312 311 311 312 312 311 311 311 310 309 306 305 303 299 296 293 291 290 289 288 287 287 289 292 294 297 298 300 302 303 303 304 305 305 305 305
313 313 314 314 314 314 314 314 314 314 314 314 314 315 315 315 313 312 311 309 305 301 297 294 291 290 289 288 289 292 295 297 299 300 302 304 305 305 305 306 305 305 303
315 315 315 316 316 316 316 317 316 316 316 316 316 317 318 318 317 316 315 314 310 306 301 297 293 291 292 293 295 297 298 300 301 303 305 307 308 307 306 306 305 303 303
316 317 317 318 318 319 319 319 319 319 319 318 318 319 319 318 317 316 315 314 311 308 305 301 298 296 296 298 299 300 302 303 304 306 308 310 311 309 308 308 305 302 304
318 319 319 320 321 321 321 321 321 320 320 320 321 321 321 320 318 317 316 314 312 310 308 305 303 302 302 303 304 305 306 307 308 309 311 313 314 313 311 310 306 304 306
320 321 322 323 324 324 324 324 324 324 324 324 325 324 324 323 322 322 320 318 315 312 310 309 308 307 307 308 309 310 311 312 312 313 314 316 318 317 315 313 309 305 307
322 323 325 326 327 328 328 328 329 329 329 329 329 329 328 328 328 328 326 323 320 318 317 316 314 313 313 314 315 315 316 316 316 316 318 319 320 321 319 317 313 309 307
Height
5677 5672 5667 5662 5657 5652 5647 5642 5638 5633 5628 5623 5619 5614 5610 5606 5601 5596 5591 5586 5581 5576 5571 5566 5562 5557 5552 5547 5542 5538 5534 5529 5526 5524 5517 5510 5503 5497 5491 5485 5479 5473 5467
5664 5658 5653 5647 5642 5637 5632 5627 5622 5618 5613 5608 5603 5598 5593 5589 5584 5579 5574 5569 5564 5559 5553 5548 5544 5539 5534 5530 5525 5520 5515 5511 5507 5504 5499 5492 5485 5478 5472 5466 5459 5452 5446
5651 5645 5638 5632 5627 5621 5616 5611 5606 5602 5597 5592 5587 5582 5577 5572 5567 5562 5557 5552 5547 5542 5537 5532 5527 5521 5517 5512 5507 5502 5497 5492 5488 5485 5481 5474 5467 5459 5452 5446 5439 5432 5424
5637 5630 5624 5618 5611 5606 5601 5596 5591 5586 5581 5576 5571 5566 5561 5555 5550 5545 5540 5535 5530 5525 5520 5514 5509 5504 5499 5494 5489 5484 5479 5474 5470 5465 5461 5455 5449 5440 5432 5427 5420 5413 5404
5623 5616 5610 5603 5596 5590 5585 5580 5575 5570 5565 5559 5554 5549 5544 5539 5533 5527 5522 5517 5512 5507 5502 5497 5492 5486 5481 5476 5471 5466 5461 5456 5451 5447 5442 5436 5430 5422 5414 5407 5401 5394 5386
5609 5602 5595 5588 5582 5575 5570 5564 5559 5553 5548 5543 5538 5533 5528 5522 5516 5510 5505 5500 5495 5490 5485 5479 5474 5468 5463 5458 5453 5448 5443 5438 5433 5428 5423 5418 5411 5403 5395 5388 5381 5374 5368
5594 5586 5579 5572 5566 5560 5554 5548 5542 5537 5532 5527 5522 5516 5511 5505 5499 5493 5487 5483 5478 5473 5467 5461 5456 5451 5445 5440 5435 5429 5425 5420 5415 5410 5405 5399 5392 5385 5377 5370 5362 5354 5347
5577 5570 5562 5556 5549 5543 5537 5531 5525 5520 5515 5510 5505 5499 5494 5488 5481 5475 5469 5464 5460 5456 5450 5444 5438 5434 5428 5422 5417 5412 5407 5402 5397 5391 5387 5381 5373 5366 5358 5351 5343 5335 5329
5560 5553 5545 5538 5532 5526 5520 5514 5508 5503 5498 5492 5487 5482 5476 5470 5463 5457 5451 5446 5442 5437 5432 5426 5421 5416 5410 5404 5400 5395 5390 5385 5379 5373 5368 5362 5355 5348 5340 5332 5325 5317 5311
5542 5535 5527 5520 5514 5508 5502 5496 5491 5485 5480 5475 5470 5464 5458 5452 5445 5439 5433 5428 5424 5419 5414 5409 5403 5398 5392 5386 5382 5378 5374 5368 5362 5356 5351 5345 5338 5331 5323 5315 5307 5299 5293
5524 5517 5510 5503 5496 5490 5485 5479 5473 5468 5463 5458 5453 5447 5440 5434 5428 5421 5415 5410 5406 5401 5396 5391 5385 5379 5374 5369 5364 5361 5357 5351 5346 5341 5335 5329 5323 5316 5308 5300 5292 5284 5277
5506 5499 5492 5486 5479 5473 5467 5462 5456 5450 5445 5440 5435 5430 5423 5417 5411 5404 5398 5393 5387 5383 5378 5372 5367 5362 5357 5352 5347 5344 5340 5335 5330 5326 5320 5315 5308 5301 5294 5286 5279 5271 5264
5489 5482 5475 5469 5462 5456 5450 5444 5439 5433 5428 5423 5417 5412 5407 5400 5394 5387 5382 5376 5370 5364 5360 5355 5350 5345 5340 5336 5331 5327 5323 5319 5315 5311 5306 5300 5293 5287 5280 5273 5266 5259 5252
5471 5465 5458 5452 5446 5440 5433 5427 5422 5416 5411 5406 5400 5395 5390 5384 5377 5371 5365 5359 5353 5347 5342 5338 5333 5329 5324 5320 5316 5312 5308 5304 5300 5296 5291 5285 5279 5273 5266 5259 5253 5247 5241
5455 5448 5442 5435 5429 5424 5418 5411 5405 5400 5393 5388 5383 5378 5372 5367 5360 5354 5348 5342 5337 5331 5326 5322 5317 5313 5309 5305 5301 5297 5293 5290 5286 5282 5277 5272 5266 5260 5254 5247 5241 5235 5229
5439 5433 5426 5420 5414 5408 5403 5398 5391 5384 5378 5372 5366 5360 5354 5348 5342 5336 5330 5325 5319 5314 5310 5306 5302 5298 5295 5291 5288 5284 5280 5277 5273 5268 5264 5259 5253 5248 5242 5236 5230 5224 5218
5423 5417 5411 5405 5399 5393 5388 5383 5378 5373 5365 5358 5351 5344 5338 5332 5325 5319 5313 5308 5303 5298 5294 5291 5288 5284 5281 5278 5275 5271 5268 5264 5260 5256 5251 5246 5241 5236 5231 5225 5220 5214 5208
5410 5404 5397 5391 5385 5380 5374 5369 5363 5358 5353 5346 5338 5330 5323 5316 5309 5302 5296 5291 5288 5283 5280 5277 5274 5271 5268 5265 5262 5259 5256 5252 5249 5244 5240 5235 5230 5225 5220 5215 5209 5204 5199
5397 5391 5385 5379 5373 5367 5362 5356 5350 5344 5338 5332 5324 5317 5309 5301 5294 5287 5281 5277 5273 5269 5266 5263 5261 5258 5256 5253 5251 5248 5245 5241 5237 5233 5229 5224 5219 5214 5210 5205 5200 5194 5189
5386 5379 5373 5368 5362 5356 5350 5344 5338 5331 5324 5317 5310 5303 5295 5288 5281 5275 5269 5264 5260 5257 5254 5251 5249 5247 5244 5242 5240 5237 5234 5231 5227 5223 5218 5214 5209 5204 5200 5195 5190 5185 5181
5375 5369 5363 5357 5352 5345 5339 5332 5326 5319 5312 5305 5298 5290 5283 5276 5270 5264 5258 5253 5249 5246 5243 5241 5238 5237 5235 5233 5230 5228 5224 5221 5217 5213 5209 5204 5199 5195 5190 5185 5181 5176 5172
5365 5360 5354 5348 5341 5335 5328 5321 5314 5307 5300 5294 5287 5280 5273 5267 5261 5256 5251 5246 5241 5238 5234 5232 5230 5228 5227 5224 5222 5219 5216 5212 5208 5204 5200 5195 5190 5185 5181 5176 5172 5169 5165
5356 5350 5344 5338 5331 5325 5318 5311 5304 5297 5290 5284 5277 5271 5265 5259 5254 5249 5244 5239 5235 5231 5228 5226 5224 5222 5220 5217 5214 5211 5207 5203 5199 5195 5191 5186 5181 5177 5172 5168 5165 5162 5159
5347 5341 5335 5329 5322 5316 5309 5302 5295 5288 5281 5275 5269 5264 5258 5252 5247 5242 5237 5233 5229 5226 5224 5221 5218 5216 5214 5211 5207 5203 5199 5195 5191 5187 5183 5178 5173 5169 5165 5162 5159 5156 5154
5339 5333 5327 5321 5314 5307 5300 5294 5287 5280 5274 5268 5263 5257 5252 5247 5242 5237 5232 5228 5225 5222 5219 5216 5213 5211 5208 5204 5200 5196 5192 5188 5184 5179 5175 5171 5167 5163 5159 5156 5154 5152 5151
5332 5326 5320 5314 5307 5300 5293 5287 5280 5274 5268 5263 5257 5252 5247 5243 5238 5233 5229 5225 5221 5218 5215 5212 5209 5205 5202 5198 5194 5189 5185 5181 5176 5172 5169 5165 5162 5158 5155 5152 5151 5149 5148